Voltar ao catálogo

FENGYUN 1C DEB

AtivoPO
NORAD 30017·DEBRIS·🇨🇳 China

Lançado May 10, 1999 de Taiyuan Satellite Launch Center

Loading…

Próximas Passagens (próximas 24 horas)

TLE

AtualizadoSource: Space-Track

Época: Sep 14, 2026, 04:10 UTC

1 30017U 99025MS  26257.17427150  .00000610  00000-0  97243-4 0  9991
2 30017  98.7176 322.3241 0216489  46.7152 315.1882 14.61737712 44671

Acompanhe FENGYUN 1C DEB em tempo real com AllMySat

Download on the App Store